Weather History for Muncie, IN

Change the Weather History Date:

Thursday, November 24, 2011

  Actual Average Record
Temperature  
Mean Temperature 43 °F 39 °F  
Max Temperature 48 °F 47 °F 64 °F (2001)
Min Temperature 38 °F 31 °F 3 °F (1970)
Degree Days  
Heating Degree Days 22 26  
Month to date heating degree days 414 504  
Since 1 July heating degree days 926 968  
Cooling Degree Days 0 0  
Month to date cooling degree days 0 0  
Year to date cooling degree days 1068 955  
Moisture  
Dew Point 38 °F    
Average Humidity 86    
Maximum Humidity 100    
Minimum Humidity 71    
Precipitation  
Precipitation 0.00 in 0.12 in 1.03 in (2004)
Month to date precipitation 4.60 2.78  
Year to date precipitation 42.20 36.57  
Sea Level Pressure  
Sea Level Pressure 30.28 in    
Wind  
Wind Speed 10 mph (SSW)    
Max Wind Speed 18 mph    
Max Gust Speed 28 mph    
Visibility 6 miles    
Events      
T = Trace of Precipitation, MM = Missing Value Source: NWS Daily Summary

Daily Weather History Graph

Daily Weather History Graph

Search for Another Location

Airport:

Trip Planner

Search our weather history database for the weather conditions in past years. The results will help you decide how hot, cold, wet, or windy it might be!

Date:

Astronomy

Nov. 24, 2011 Rise Set
Actual Time 7:37 AM EST 5:18 PM EST
Civil Twilight 7:07 AM EST 5:48 PM EST
Nautical Twilight 6:34 AM EST 6:22 PM EST
Astronomical Twilight 6:01 AM EST 6:54 PM EST
Moon 6:54 AM EST (11/24) 4:49 PM EST (11/24)
Length of Visible Light 10h 41m
Length of Day
9h 41m
Waning Crescent, 0% of the Moon is Illuminated
Nov 24
Waning Crescent
Nov 25
New
Dec 2
First Quarter
Dec 10
Full
Dec 17
Last Quarter

Hourly Weather History & Observations

Time (EST) Temp. Windchill Dew Point Humidity Pressure Visibility Wind Dir Wind Speed Gust Speed Precip Events Conditions
12:03 AM 41.0 °F 36.4 °F 37.4 °F 87% 30.29 in 5.0 mi WSW 6.9 mph - N/A   Mostly Cloudy
12:53 AM 39.9 °F 35.8 °F 37.0 °F 89% 30.29 in 5.0 mi WSW 5.8 mph - N/A   Scattered Clouds
1:53 AM 37.9 °F 34.4 °F 35.1 °F 89% 30.28 in 4.0 mi SSW 4.6 mph - N/A   Clear
2:03 AM 37.4 °F 32.8 °F 35.6 °F 93% 30.27 in 4.0 mi SSW 5.8 mph - N/A   Scattered Clouds
2:13 AM 39.2 °F 34.2 °F 35.6 °F 87% 30.27 in 4.0 mi SSW 6.9 mph - N/A   Mostly Cloudy
2:53 AM 39.0 °F 34.0 °F 36.0 °F 89% 30.28 in 5.0 mi SW 6.9 mph - N/A   Overcast
3:53 AM 39.0 °F 34.0 °F 36.0 °F 89% 30.28 in 6.0 mi WSW 6.9 mph - N/A   Overcast
5:53 AM 37.9 °F 33.5 °F 35.1 °F 89% 30.30 in 5.0 mi WSW 5.8 mph - N/A   Overcast
6:53 AM 37.9 °F 32.1 °F 35.1 °F 89% 30.30 in 4.0 mi SSW 8.1 mph - N/A   Overcast
7:42 AM 37.4 °F 29.8 °F 35.6 °F 93% 30.30 in 3.0 mi SW 11.5 mph - N/A   Overcast
7:53 AM 37.9 °F 31.5 °F 36.0 °F 93% 30.32 in 2.5 mi SW 9.2 mph - N/A   Overcast
8:07 AM 37.4 °F 32.1 °F 35.6 °F 93% 30.31 in 1.5 mi SW 6.9 mph 16.1 mph N/A   Overcast
8:53 AM 37.9 °F 31.5 °F 37.0 °F 97% 30.32 in 1.5 mi SSW 9.2 mph - N/A   Overcast
9:23 AM 37.4 °F 30.8 °F 35.6 °F 93% 30.32 in 2.0 mi SW 9.2 mph 20.7 mph N/A   Overcast
9:38 AM 39.2 °F 33.0 °F 37.4 °F 93% 30.32 in 1.5 mi SSW 9.2 mph - N/A   Overcast
9:53 AM 39.0 °F 32.8 °F 37.0 °F 93% 30.33 in 2.0 mi SW 9.2 mph 19.6 mph N/A   Overcast
10:24 AM 39.2 °F 31.2 °F 37.4 °F 93% 30.32 in 3.0 mi SW 13.8 mph 18.4 mph N/A   Overcast
10:53 AM 41.0 °F 34.7 °F 37.9 °F 89% 30.33 in 4.0 mi SSW 10.4 mph 18.4 mph N/A   Overcast
11:00 AM 41.0 °F 35.2 °F 37.4 °F 87% 30.33 in 4.0 mi SW 9.2 mph 20.7 mph N/A   Overcast
11:53 AM 42.1 °F 36.6 °F 39.0 °F 89% 30.32 in 6.0 mi SSW 9.2 mph 19.6 mph N/A   Overcast
12:53 PM 44.1 °F 39.0 °F 39.0 °F 82% 30.30 in 9.0 mi SW 9.2 mph 18.4 mph N/A   Overcast
1:15 PM 44.6 °F 40.2 °F 39.2 °F 81% 30.28 in 9.0 mi SSW 8.1 mph - N/A   Overcast
2:32 PM 46.4 °F 41.5 °F 39.2 °F 76% 30.26 in 9.0 mi South 10.4 mph - N/A   Scattered Clouds
2:53 PM 48.0 °F - 39.9 °F 74% 30.26 in 10.0 mi SW 11.5 mph - N/A   Partly Cloudy
3:53 PM 48.0 °F - 39.9 °F 74% 30.25 in 10.0 mi SSW 11.5 mph - N/A   Clear
5:53 PM 44.1 °F 37.7 °F 39.9 °F 85% 30.25 in 9.0 mi SSW 12.7 mph - N/A   Clear
7:15 PM 42.8 °F 36.2 °F 39.2 °F 87% 30.24 in 9.0 mi SSW 12.7 mph 18.4 mph N/A   Mostly Cloudy
7:53 PM 43.0 °F 36.0 °F 39.0 °F 86% 30.25 in 10.0 mi SSW 13.8 mph 25.3 mph N/A   Mostly Cloudy
8:21 PM 42.8 °F 35.8 °F 39.2 °F 87% 30.23 in 10.0 mi SSW 13.8 mph - N/A   Scattered Clouds
8:29 PM 42.8 °F 36.2 °F 39.2 °F 87% 30.23 in 10.0 mi SSW 12.7 mph 19.6 mph N/A   Mostly Cloudy
8:53 PM 43.0 °F 35.4 °F 39.0 °F 86% 30.24 in 10.0 mi SSW 16.1 mph 21.9 mph N/A   Mostly Cloudy
9:19 PM 42.8 °F 35.8 °F 39.2 °F 87% 30.22 in 10.0 mi SSW 13.8 mph 20.7 mph N/A   Scattered Clouds
9:53 PM 43.0 °F 36.8 °F 39.0 °F 86% 30.23 in 9.0 mi SSW 11.5 mph 20.7 mph N/A   Scattered Clouds
10:16 PM 42.8 °F 35.8 °F 39.2 °F 87% 30.21 in 9.0 mi SSW 13.8 mph 24.2 mph N/A   Mostly Cloudy
10:53 PM 43.0 °F 36.0 °F 39.0 °F 86% 30.22 in 9.0 mi SSW 13.8 mph 24.2 mph N/A   Scattered Clouds
11:53 PM 43.0 °F 35.7 °F 39.0 °F 86% 30.20 in 8.0 mi SSW 15.0 mph - N/A   Clear